Location: Poigny-la-Forêt
(48.6876°N, 1.7701°E)
Time: 00:54:36
(UTC+02:00)

ISS - Pass Details

Date: 25 May 2019
Orbit: 408 x 418 km, 51.6° (Epoch: 16 June)

Event Time Altitude Azimuth Distance (km) Brightness Sun altitude
Rises 01:47:04 0° 291° (WNW) 2,364 0.3 -20.5°
Reaches altitude 10° 01:49:11 10° 287° (WNW) 1,500 -0.8 -20.5°
Enters shadow 01:50:58 28° 274° (W) 826 -2.3 -20.5°
